カタログに戻る

SL-3 R/B

運用中SSO
NORAD 10114·ROCKET BODY·🇷🇺 Russia

打ち上げ Jun 29, 1977 から Baikonur Cosmodrome

Loading…

次のパス (今後24時間)

TLE

最新Source: Space-Track

元期: Sep 14, 2026, 13:48 UTC

1 10114U 77057B   26257.57523489  .00009748  00000-0  17851-3 0  9991
2 10114  97.5878  78.5903 0005638 328.1130  31.9778 15.49536223697541

AllMySatでSL-3 R/Bをリアルタイム追跡

Download on the App Store